Regional Weather Roundup
Issued by NWS Upton, NY

Current Version | Previous Version | Text Only | Print | Product List | Glossary On
Versions: 1 2 3 4 5 6 7 8 9 10 11 12 13 14 15 16 17 18 19 20 21 22 23 24 25 26 27 28 29 30 31 32 33 34 35 36 37 38 39 40 41 42 43 44 45 46 47 48 49 50
000 ASUS41 KOKX 170305 RWROKX REGIONAL WEATHER ROUNDUP NATIONAL WEATHER SERVICE NEW YORK NY 1100 PM EDT TUE SEP 16 2014 NOTE: "FAIR" INDICATES FEW OR NO CLOUDS BELOW 12,000 FEET WITH NO SIGNIFICANT WEATHER AND/OR OBSTRUCTIONS TO VISIBILITY. NYZ071-072-176-178-NJZ106-104-170400- NEW YORK CITY METRO AREA CITY SKY/WX TMP DP RH WIND PRES REMARKS CENTRAL PARK CLOUDY 64 50 60 CALM 30.04R LAGUARDIA APRT MOCLDY 66 51 58 NW10 30.01R KENNEDY INTL MOCLDY 61 56 83 CALM 30.02R NEWARK/LIBERTY PTCLDY 64 50 60 N7 30.02R BRNX BOT. GARD N/A 61 50 67 CALM 30.04R TETERBORO MOCLDY 62 51 67 NW3 30.01R $$ NYZ177-179-078>081-170400- LONG ISLAND NEW YORK CITY SKY/WX TMP DP RH WIND PRES REMARKS FARMINGDALE CLEAR 61 56 83 CALM 30.02R ISLIP PTCLDY 59 56 89 CALM 30.00R SHIRLEY MOCLDY 56 55 97 CALM 30.01S FOG WESTHAMPTON CLEAR 50 49 96 CALM 30.02S FOG MONTAUK POINT N/A 64 57 78 NW5 30.01R $$ NYZ052-065-067-170400- HUDSON VALLEY CITY SKY/WX TMP DP RH WIND PRES REMARKS WHITE PLAINS PTCLDY 58 52 80 CALM 30.02R NEWBURGH PTCLDY 55 52 88 CALM 30.05R MONTGOMERY CLEAR 49 47 93 SW5 30.03S POUGHKEEPSIE CLOUDY 56 55 97 CALM 30.02R ALBANY CLEAR 51 45 79 W7 30.03R $$ NJZ001-105-106-008-010-013-015-019>022-104-170400- NEW JERSEY CITY SKY/WX TMP DP RH WIND PRES REMARKS NEWARK/LIBERTY PTCLDY 64 50 60 N7 30.02R TETERBORO MOCLDY 62 51 67 NW3 30.01R CALDWELL PTCLDY 56 51 84 CALM 30.03S MORRISTOWN PTCLDY 52 48 87 CALM 30.03S FOG SOMERVILLE MOCLDY 52 50 93 CALM 30.02R LINDEN FAIR 65 55 69 CALM 30.04S SUSSEX PTCLDY 51 48 89 CALM 30.05R FOG ANDOVER N/A 49 48 97 CALM 30.05S TRENTON CLOUDY 59 51 75 CALM 30.02F MILLVILLE CLEAR 57 54 89 W3 30.03R ATLANTIC CITY CLEAR 60 58 92 CALM 30.02S WRIGHTSTOWN CLEAR 56 53 89 CALM 30.01R TOMS RIVER CLEAR 54 52 94 CALM 30.03S BELMAR CLEAR 57 52 82 CALM 30.02S $$ PAZ047>061-062-071-170400- EASTERN PENNSYLVANIA CITY SKY/WX TMP DP RH WIND PRES REMARKS PHILADELPHIA PTCLDY 65 50 58 NE6 30.03S ALLENTOWN CLEAR 51 47 86 CALM 30.04S SCRANTON CLEAR 50 46 86 E6 30.05S $$ CTZ002-004>006-009-010-012-RIZ004-006-007-MAZ004-011-015-170400- SOUTHERN NEW ENGLAND IN CT CITY SKY/WX TMP DP RH WIND PRES REMARKS BRADLEY INTL PTCLDY 55 52 89 W5 30.01R HARTFORD MOCLDY 56 54 93 CALM 30.01R DANBURY CLOUDY 56 53 90 CALM 30.04R WTRBRY/OXFORD MOCLDY 54 48 82 CALM 30.04S BRIDGEPORT MOCLDY 61 54 77 N3 30.01R MERIDEN MOCLDY 53 51 93 CALM 30.02R NEW HAVEN CLOUDY 56 52 86 CALM 30.02R CHESTER FAIR 57 52 82 NW5 30.02R GROTON MOCLDY 55 55 100 NW3 29.99S WILLIMANTIC CLEAR 55 53 93 CALM 30.02R IN RI CITY SKY/WX TMP DP RH WIND PRES REMARKS PROVIDENCE MOCLDY 59 54 83 SW5 29.99S BLOCK ISLAND CLEAR 61 54 77 NW6 29.99S WESTERLY CLEAR 53 51 93 CALM 30.00S IN MA CITY SKY/WX TMP DP RH WIND PRES REMARKS BOSTON PTCLDY 61 54 77 SW5 29.99S WORCESTER CLEAR 55 52 89 W8 30.01R WESTFIELD CLEAR 57 49 74 NW7 30.00S PROVINCETOWN MOCLDY 55 54 94 CALM 29.98F NANTUCKET CLEAR 55 51 86 CALM 29.99S $$ ANZ330-335-338-340-345-350-353-355-170400- COASTAL MARINE OBSERVATIONS STATION/POSITION TIME SKY/WX TEMP WIND PRES VSBY WAVE AIR SEA DIR/SP/G HT/PER (UTC) (F) (DEG/KT/KT) (MB) (MI) (FT/S) NY HARB ENTRANCE NOT AVBL 4S FIRE IS NOT AVBL 23SW MTP 0300 N/A 2/12 HUDSON CANYON 0300 67 74 350/ 6/ 8 1015.8 2/12 EXECUTION ROCKS 0300 66 71 330/ 8/ 10 N/A WESTERN LI SOUND 0300 66 340/ 8/ 8 N/A 0 CENTRAL LI SOUND 0200 66 71 330/ 10/ 12 N/A 1 EASTERN LI SOUND 0200 64 68 310/ 8/ 10 N/A ROBBINS REEF 0300 65 320/ 7/ 9 1015.3 $$ >>>>>>>>>>>>>>>>>>>>>>>>>>>> KEY <<<<<<<<<<<<<<<<<<<<<<<<<<< > < > SKY/WX - SKY CONDITION/PRESENT WEATHER < > TMP - TEMPERATURE IN FAHRENHEIT < > DP - DEWPOINT IN FAHRENHEIT < > RH - RELATIVE HUMIDITY IN PERCENT < > WIND - DIRECTION AND SPEED IN MPH < > PRES - MEAN SEA LEVEL PRESSURE IN INCHES OF HG < > WCI - WIND CHILL INDEX < > VSB - VISIBILITY IN MILES < > HX - HEAT INDEX < > TC - TEMPERATURE IN CELSIUS < > VRB - VARIABLE WIND DIRECTION < > < >>>>>>>>>>>>>>>>>>>>>>>>>>>> KEY <<<<<<<<<<<<<<<<<<<<<<<<<<<

USA.gov is the U.S. government's official web portal to all federal, state and local government web resources and services.